Tiempo atmosférico en la estación meteorológica de Puerto de Pajares, Asturias (1480 m.)



Fecha
DESCASC
Temp. máxima en grados centígrados (hora)
DESCASC
Temp. mínima en grados centígrados (hora)
DESCASC
Temp. media en grados centígrados
DESCASC
Racha de viento máxima en m/sg (hora)
DESCASC
Velocidad máxima media en intervalos de 10 minutos(hora)
DESCASC
Precipitaciones diarias en mm
DESCASC
Precipitaciones de 00:00 a 06:00 en mm
DESCASC
Precipitaciones de 06:00 a 12:00 en mm
DESCASC
Precipitaciones de 12:00 a 18:00 en mm
DESCASC
Precipitaciones de 18:00 a 24:00 en mm
DESCASC

Gráficas

Temp. máximas Temp. mínimas Temp. medias Precipitaciones Rachas de viento máximas Velocidades máximas media en intervalos de 10 minutos

Datos horarios

Fecha y hora oficial Temperatura (ºC) Velocidad del viento (km/h) Dirección del viento Racha (km/h) Dirección de racha Precipitación (mm) Presión (hPa) Tendencia (hPa) Humedad (%)
2021-01-17 23:00:00 3 3 Noroeste 13 Noroeste 0.1 -- -- 91
2021-01-17 22:00:00 3.2 10 Noroeste 18 Noroeste 0.4 -- -- 91
2021-01-17 21:00:00 3.2 12 Noroeste 22 Noroeste 0.1 -- -- 91
2021-01-17 20:00:00 3.4 10 Noroeste 19 Noroeste 0.2 -- -- 91
2021-01-17 19:00:00 3.4 10 Noroeste 22 Noroeste 0 -- -- 90
2021-01-17 18:00:00 3.4 10 Noroeste 24 Noroeste 0.2 -- -- 90
2021-01-17 17:00:00 3.4 10 Noroeste 17 Noroeste 0.7 -- -- 88
2021-01-17 16:00:00 3.5 7 Noroeste 20 Noroeste 0.5 -- -- 86
2021-01-17 15:00:00 3.8 5 Noroeste 10 Norte 0.2 -- -- 80
2021-01-17 14:00:00 4.2 7 Noroeste 24 Noroeste 0 -- -- 74
2021-01-17 13:00:00 5.2 9 Noroeste 22 Noroeste 0 -- -- 68
2021-01-17 12:00:00 4.6 7 Noroeste 17 Noroeste 0 -- -- 68
2021-01-17 11:00:00 4.3 7 Noroeste 21 Noroeste 0 -- -- 68
2021-01-17 10:00:00 3.7 8 Noroeste 24 Noroeste 0 -- -- 71
2021-01-17 09:00:00 2.3 3 Oeste 18 Oeste 0 -- -- 69
2021-01-17 08:00:00 2.8 3 Oeste 20 Noroeste 0 -- -- 64
2021-01-17 07:00:00 3.8 7 Norte 12 Noroeste 0 -- -- 66
2021-01-17 06:00:00 3.1 6 Norte 11 Noroeste 0 -- -- 67
2021-01-17 05:00:00 1.4 3 Oeste 11 Noroeste 0 -- -- 66
2021-01-17 04:00:00 2.5 4 Noroeste 14 Noroeste 0 -- -- 61
2021-01-17 03:00:00 0.4 0 Calma 12 Sudoeste 0 -- -- 67
2021-01-17 02:00:00 0.3 10 Sudoeste 13 Sudoeste 0 -- -- 64
2021-01-17 01:00:00 0.5 11 Sudoeste 14 Sudoeste 0 -- -- 58
2021-01-17 00:00:00 -0.2 10 Sudoeste 13 Sudoeste 0 -- -- 43
2021-01-16 23:00:00 -0.3 10 Sudoeste 16 Sudoeste 0 -- -- 36
2021-01-16 22:00:00 0.7 13 Sudoeste 16 Sudoeste 0 -- -- 36
2021-01-16 21:00:00 -1 8 Sudoeste 10 Sudoeste 0 -- -- 39
2021-01-16 20:00:00 0 3 Oeste 14 Sudoeste 0 -- -- 38
2021-01-16 19:00:00 1.3 13 Sudoeste 17 Sudoeste 0 -- -- 35
2021-01-16 18:00:00 1.6 14 Sudoeste 16 Sudoeste 0 -- -- 36
2021-01-16 17:00:00 1 9 Sudoeste 12 Sudoeste 0 -- -- 40
2021-01-16 16:00:00 3.7 6 Sudoeste 12 Sudoeste 0 -- -- 37
2021-01-16 15:00:00 4.8 9 Sudoeste 12 Sur 0 -- -- 36
2021-01-16 14:00:00 5.4 10 Sudoeste 13 Sudoeste 0 -- -- 35
2021-01-16 13:00:00 5.7 10 Sudoeste 15 Sudoeste 0 -- -- 35
2021-01-16 12:00:00 4.3 12 Sudoeste 15 Sudoeste 0 -- -- 36
2021-01-16 11:00:00 2.1 9 Sur 10 Sur 0 -- -- 40
2021-01-16 10:00:00 0.7 3 Sudoeste 8 Oeste 0 -- -- 40
2021-01-16 09:00:00 0.1 2 Sudoeste 13 Sudoeste 0 -- -- 43
2021-01-16 08:00:00 -0.3 9 Sudoeste 12 Sudoeste 0 -- -- 44
2021-01-16 07:00:00 -1 6 Sur 12 Sur 0 -- -- 44
2021-01-16 06:00:00 -0.6 8 Sur 11 Sur 0 -- -- 44
2021-01-16 05:00:00 0.1 3 Sudoeste 8 Sudoeste 0 -- -- 43
2021-01-16 04:00:00 0.3 3 Sudoeste 8 Oeste 0 -- -- 43
2021-01-16 03:00:00 0 5 Sur 8 Sur 0 -- -- 44
2021-01-16 02:00:00 0.7 4 Oeste 9 Sudoeste 0 -- -- 45
2021-01-16 01:00:00 -0.5 6 Sudoeste 13 Sudoeste 0 -- -- 46
2021-01-16 00:00:00 -0.2 8 Sur 17 Sudoeste 0 -- -- 44
2021-01-15 23:00:00 0.7 12 Sudoeste 17 Sudoeste 0 -- -- 41
2021-01-15 22:00:00 -0.3 11 Sudoeste 16 Sur 0 -- -- 42
2021-01-15 21:00:00 0 11 Sudoeste 14 Sudoeste 0 -- -- 42
2021-01-15 20:00:00 -0.9 11 Sudoeste 14 Sudoeste 0 -- -- 41
2021-01-15 19:00:00 -1.4 3 Sudoeste 12 Sudoeste 0 -- -- 42
2021-01-15 18:00:00 -0.8 7 Sudoeste 12 Sudoeste 0 -- -- 47
2021-01-15 17:00:00 -0.8 3 Oeste 6 Sudoeste 0 -- -- 58
2021-01-15 16:00:00 2.6 2 Oeste 6 Noroeste 0 -- -- 59
2021-01-15 15:00:00 4 2 Sur 9 Sudoeste 0 -- -- 63
2021-01-15 14:00:00 3 4 Sudeste 12 Oeste 0 -- -- 67
2021-01-15 13:00:00 2.1 6 Noroeste 12 Noroeste 0 -- -- 66
2021-01-15 12:00:00 2.1 6 Oeste 13 Oeste 0 -- -- 74
2021-01-15 11:00:00 -0.9 5 Sur 11 Sudoeste 0 -- -- 87
2021-01-15 10:00:00 -1.7 8 Noroeste 16 Sudoeste 0 -- -- 84
2021-01-15 09:00:00 -3 8 Sur 12 Sudoeste 0 -- -- 85
2021-01-15 08:00:00 -2.5 3 Noroeste 6 Noroeste 0 -- -- 89
2021-01-15 07:00:00 -2.4 3 Noroeste 12 Sudoeste 0 -- -- 90
2021-01-15 06:00:00 -0.7 3 Sur 8 Nordeste 0 -- -- 91
2021-01-15 05:00:00 0.1 3 Norte 13 Noroeste 0.1 -- -- 91
2021-01-15 04:00:00 -0.2 6 Noroeste 23 Noroeste 0 -- -- 91
2021-01-15 03:00:00 0.4 12 Noroeste 26 Noroeste 0 -- -- 91
2021-01-15 02:00:00 0.8 12 Noroeste 24 Noroeste 0 -- -- 91
2021-01-15 01:00:00 1 11 Noroeste 23 Noroeste 0 -- -- 91
2021-01-15 00:00:00 1.5 13 Noroeste 28 Noroeste 0 -- -- 91
2021-01-14 23:00:00 1.6 15 Noroeste 35 Noroeste 0.1 -- -- 91
2021-01-14 22:00:00 1.9 17 Noroeste 35 Noroeste 0 -- -- 91
2021-01-14 21:00:00 2 17 Noroeste 32 Noroeste 0.2 -- -- 91
2021-01-14 20:00:00 2.2 18 Noroeste 30 Noroeste 0.1 -- -- 91
2021-01-14 19:00:00 2.1 13 Noroeste 28 Noroeste 0.1 -- -- 91
2021-01-14 18:00:00 2.2 14 Noroeste 27 Noroeste 0 -- -- 91
2021-01-14 17:00:00 1.8 11 Noroeste 22 Noroeste 0 -- -- 90
2021-01-14 16:00:00 1.9 8 Noroeste 16 Noroeste 0 -- -- 88
2021-01-14 15:00:00 1.9 9 Noroeste 15 Noroeste 0 -- -- 85
2021-01-14 14:00:00 1.9 3 Noroeste 15 Noroeste 0.1 -- -- 76
2021-01-14 13:00:00 2.1 8 Noroeste 18 Nordeste 0 -- -- 64
2021-01-14 12:00:00 2.4 7 Noroeste 13 Noroeste 0 -- -- 44
2021-01-14 11:00:00 1.6 8 Noroeste 14 Noroeste 0 -- -- 38
2021-01-14 10:00:00 -1.9 0 Calma 11 Noroeste -- -- -- 39
2021-01-14 09:00:00 -- -- -- 11 Norte -- -- -- --
2021-01-14 08:00:00 -- -- -- 12 Norte -- -- -- --
2021-01-14 07:00:00 -- -- -- 13 Norte -- -- -- --
2021-01-14 06:00:00 -- -- -- 15 Norte -- -- -- --
2021-01-14 05:00:00 -- -- -- 13 Norte -- -- -- --
2021-01-14 04:00:00 -- -- -- 10 Norte -- -- -- --
2021-01-14 03:00:00 -- -- -- 10 Norte -- -- -- --
2021-01-14 02:00:00 -- -- -- 9 Norte -- -- -- --
2021-01-14 01:00:00 -- -- -- 9 Norte -- -- -- --
2021-01-14 00:00:00 -- -- -- 12 Norte -- -- -- --
2021-01-13 23:00:00 -- -- -- 7 Norte -- -- -- --
2021-01-13 22:00:00 -- -- -- 11 Norte -- -- -- --
2021-01-13 21:00:00 -- -- -- 11 Norte -- -- -- --
2021-01-13 20:00:00 -- -- -- 10 Norte -- -- -- --
2021-01-13 19:00:00 -- -- -- 7 Norte -- -- -- --
2021-01-13 18:00:00 -- -- -- 11 Norte -- -- -- --
2021-01-13 17:00:00 -- -- -- 8 Norte -- -- -- --
2021-01-13 16:00:00 -- -- -- 9 Norte -- -- -- --
2021-01-13 15:00:00 -- -- -- 13 Norte -- -- -- --
2021-01-13 14:00:00 -- -- -- 11 Norte -- -- -- --
2021-01-13 13:00:00 4.1 3 Sudoeste 7 Sudoeste 0 -- -- 41
2021-01-13 12:00:00 2.9 3 Sudoeste 9 Oeste 0 -- -- 44
2021-01-13 11:00:00 -0.6 5 Sudoeste 9 Sudoeste 0 -- -- 49
2021-01-13 10:00:00 -4 4 Sudoeste 8 Sur 0 -- -- 48
2021-01-13 09:00:00 -3.3 -- -- -- -- 0 -- -- 46
2021-01-13 08:00:00 -2.7 -- -- -- -- 0 -- -- 49
2021-01-13 07:00:00 -3.9 -- -- -- -- 0 -- -- 53
2021-01-13 06:00:00 -4.2 -- -- -- -- 0 -- -- 54
2021-01-13 05:00:00 -3.8 -- -- -- -- 0 -- -- 53
2021-01-13 04:00:00 -3.4 -- -- -- -- 0 -- -- 52
2021-01-13 03:00:00 -4.4 -- -- -- -- 0 -- -- 55
2021-01-13 02:00:00 -4 -- -- -- -- 0 -- -- 54
2021-01-13 01:00:00 -2.8 -- -- -- -- 0 -- -- 54
2021-01-13 00:00:00 -2.6 -- -- -- -- 0 -- -- 53
2021-01-12 23:00:00 -4.5 -- -- -- -- 0 -- -- 58
2021-01-12 22:00:00 -4.4 -- -- -- -- 0 -- -- 58
2021-01-12 21:00:00 -4.1 -- -- -- -- 0 -- -- 57
2021-01-12 20:00:00 -3.8 -- -- -- -- 0 -- -- 58
2021-01-12 19:00:00 -2 -- -- -- -- 0 -- -- 54
2021-01-12 18:00:00 -2.1 -- -- -- -- 0 -- -- 56
2021-01-12 17:00:00 -0.8 -- -- -- -- 0 -- -- 53
2021-01-12 16:00:00 0.6 -- -- -- -- 0 -- -- 55
2021-01-12 15:00:00 1 -- -- -- -- 0 -- -- 58
2021-01-12 14:00:00 1.2 -- -- -- -- 0 -- -- 63
2021-01-12 13:00:00 0.7 -- -- -- -- 0 -- -- 65
2021-01-12 12:00:00 -0.2 -- -- -- -- 0 -- -- 69
2021-01-12 11:00:00 -2 -- -- -- -- 0 -- -- 71
2021-01-12 10:00:00 -4.8 -- -- -- -- 0 -- -- 71
2021-01-12 09:00:00 -6.1 -- -- -- -- 0 -- -- 71
2021-01-12 08:00:00 -4.8 -- -- -- -- 0 -- -- 72
2021-01-12 07:00:00 -5.3 -- -- -- -- 0 -- -- 73
2021-01-12 06:00:00 -5.5 -- -- -- -- 0 -- -- 74
2021-01-12 05:00:00 -4.5 -- -- -- -- 0 -- -- 75
2021-01-12 04:00:00 -4.3 -- -- -- -- 0 -- -- 77
2021-01-12 03:00:00 -4.8 -- -- -- -- 0 -- -- 79
2021-01-12 02:00:00 -4.3 -- -- -- -- 0 -- -- 80
2021-01-12 01:00:00 -5.5 -- -- -- -- 0 -- -- 84
2021-01-12 00:00:00 -6.5 -- -- -- -- 0 -- -- 86
2021-01-11 23:00:00 -6.9 -- -- -- -- 0 -- -- 86
2021-01-11 22:00:00 -8 -- -- -- -- 0 -- -- 86
2021-01-11 21:00:00 -7.8 -- -- -- -- 0 -- -- 87
2021-01-11 20:00:00 -7.2 -- -- -- -- 0 -- -- 87
2021-01-11 19:00:00 -4.4 -- -- -- -- 0 -- -- 89
2021-01-11 18:00:00 -3.9 -- -- -- -- 0 -- -- 90
2021-01-11 17:00:00 -3.5 -- -- -- -- 0 -- -- 90
2021-01-11 16:00:00 -- -- -- -- -- -- -- -- --
2021-01-11 15:00:00 -2.9 -- -- -- -- 0 -- -- 90
2021-01-11 14:00:00 -2.1 -- -- -- -- 0 -- -- 90
2021-01-11 13:00:00 -2.3 -- -- -- -- 0.1 -- -- 89
2021-01-11 12:00:00 -3.4 -- -- -- -- 0.5 -- -- 88
2021-01-11 11:00:00 -4 -- -- -- -- 0 -- -- 88
2021-01-11 10:00:00 -4.4 -- -- -- -- 0 -- -- 88
2021-01-11 09:00:00 -4.5 -- -- -- -- 0 -- -- 88
2021-01-11 08:00:00 -4.1 -- -- -- -- 0.1 -- -- 88
2021-01-11 07:00:00 -4.1 -- -- -- -- 0 -- -- 88
2021-01-11 06:00:00 -4.3 -- -- -- -- 0 -- -- 88
2021-01-11 05:00:00 -4.3 -- -- -- -- 0 -- -- 88
2021-01-11 04:00:00 -4.1 -- -- -- -- 0.6 -- -- 88
2021-01-11 03:00:00 -4.1 -- -- -- -- 0.1 -- -- 88
2021-01-11 02:00:00 -4.3 -- -- -- -- 0.2 -- -- 88
2021-01-11 01:00:00 -4.2 -- -- -- -- 0.2 -- -- 88
2021-01-11 00:00:00 -4.6 -- -- -- -- 0.3 -- -- 88
2021-01-10 23:00:00 -4.3 -- -- -- -- 0.5 -- -- 88
2021-01-10 22:00:00 -4.7 -- -- -- -- 0.1 -- -- 88
2021-01-10 21:00:00 -4.9 -- -- -- -- 0.1 -- -- 88
2021-01-10 20:00:00 -4.7 -- -- -- -- 0.1 -- -- 88
2021-01-10 19:00:00 -4.7 -- -- -- -- 0.1 -- -- 88
2021-01-10 18:00:00 -4.5 -- -- -- -- 0 -- -- 88
2021-01-10 17:00:00 -4.5 -- -- -- -- 0.1 -- -- 88
2021-01-10 16:00:00 -4.3 -- -- -- -- 0 -- -- 88
2021-01-10 15:00:00 -4.3 -- -- -- -- 0.2 -- -- 88
2021-01-10 14:00:00 -4.4 -- -- -- -- 0.1 -- -- 88
2021-01-10 13:00:00 -4.2 -- -- -- -- 0.1 -- -- 88
2021-01-10 12:00:00 -4.5 -- -- -- -- 0.6 -- -- 88
2021-01-10 11:00:00 -3.9 -- -- -- -- 1.2 -- -- 88
2021-01-10 10:00:00 -4 -- -- -- -- 0.7 -- -- 88
2021-01-10 09:00:00 -4.2 -- -- -- -- 0.3 -- -- 88
2021-01-10 08:00:00 -4.4 -- -- -- -- 0.1 -- -- 88
2021-01-10 07:00:00 -4.6 -- -- -- -- 0.3 -- -- 88
2021-01-10 06:00:00 -4.3 -- -- -- -- 1 -- -- 88
2021-01-10 05:00:00 -4.1 -- -- -- -- 1.3 -- -- 87
2021-01-10 04:00:00 -4.2 -- -- -- -- 0.6 -- -- 87
2021-01-10 03:00:00 -4.4 -- -- -- -- 1.6 -- -- 87
2021-01-10 02:00:00 -4.6 -- -- -- -- 0.9 -- -- 87
2021-01-10 01:00:00 -4.7 -- -- -- -- 0.6 -- -- 87
2021-01-10 00:00:00 -4.9 -- -- -- -- 0.5 -- -- 87
2021-01-09 23:00:00 -4.8 -- -- -- -- 0.6 -- -- 87
2021-01-09 22:00:00 -5 -- -- -- -- 0.6 -- -- 87
2021-01-09 21:00:00 -5 -- -- -- -- 1.1 -- -- 87
2021-01-09 20:00:00 -5.1 -- -- -- -- 0.6 -- -- 87
2021-01-09 19:00:00 -5.2 -- -- -- -- 0.6 -- -- 87
2021-01-09 18:00:00 -5 -- -- -- -- 1.4 -- -- 87
2021-01-09 17:00:00 -4.9 -- -- -- -- 1 -- -- 87
2021-01-09 16:00:00 -5 -- -- -- -- 0.9 -- -- 87
2021-01-09 15:00:00 -5.1 -- -- -- -- 1.2 -- -- 87
2021-01-09 14:00:00 -4.9 -- -- -- -- 1 -- -- 87
2021-01-09 13:00:00 -5 -- -- -- -- 1 -- -- 87
2021-01-09 12:00:00 -5.1 -- -- -- -- 0.8 -- -- 87
2021-01-09 11:00:00 -5.4 -- -- -- -- 0.6 -- -- 87
2021-01-09 10:00:00 -5.7 -- -- -- -- 0.1 -- -- 87
2021-01-09 09:00:00 -6.1 -- -- -- -- 0 -- -- 86
2021-01-09 08:00:00 -6.3 -- -- -- -- 0 -- -- 86
2021-01-09 07:00:00 -6.5 -- -- -- -- 0 -- -- 86
2021-01-09 06:00:00 -6.8 -- -- -- -- 0 -- -- 85
2021-01-09 05:00:00 -6.9 -- -- -- -- 0 -- -- 85
2021-01-09 04:00:00 -7.3 -- -- -- -- 0 -- -- 85
2021-01-09 03:00:00 -7.3 -- -- -- -- 0 -- -- 85
2021-01-09 02:00:00 -7.4 -- -- -- -- 0 -- -- 85
2021-01-09 01:00:00 -7.5 -- -- -- -- 0 -- -- 86
2021-01-09 00:00:00 -6.9 -- -- -- -- 0 -- -- 86
2021-01-08 23:00:00 -6.5 -- -- -- -- 0 -- -- 86
2021-01-08 22:00:00 -6.2 -- -- -- -- 0 -- -- 86
2021-01-08 21:00:00 -6.2 -- -- -- -- 0 -- -- 85
2021-01-08 20:00:00 -6.3 -- -- -- -- 0 -- -- 83
2021-01-08 19:00:00 -6.4 -- -- -- -- 0 -- -- 82
2021-01-08 18:00:00 -6.3 -- -- -- -- 0 -- -- 80
2021-01-08 17:00:00 -5.7 -- -- -- -- 0 -- -- 77
2021-01-08 16:00:00 -4.9 -- -- -- -- 0 -- -- 75
2021-01-08 15:00:00 -3.6 -- -- -- -- 0 -- -- 72
2021-01-08 14:00:00 -3.3 -- -- -- -- 0 -- -- 72
2021-01-08 13:00:00 -3.8 -- -- -- -- 0 -- -- 73
2021-01-08 12:00:00 -3.5 0 Calma 0 Calma 0 -- -- 76
2021-01-08 11:00:00 -5.3 0 Calma 0 Calma 0 -- -- 81
2021-01-08 10:00:00 -7.9 0 Calma 0 Calma 0 -- -- 85
2021-01-08 09:00:00 -8.1 0 Calma 0 Calma 0 -- -- 85
2021-01-08 08:00:00 -8 0 Calma 0 Calma 0 -- -- 85
2021-01-08 07:00:00 -7.4 0 Calma 0 Calma 0 -- -- 85
2021-01-08 06:00:00 -6.8 0 Calma 0 Calma 0 -- -- 85
2021-01-08 05:00:00 -6.7 0 Calma 0 Calma 0 -- -- 85
2021-01-08 04:00:00 -6.5 0 Calma 0 Calma 0 -- -- 85
2021-01-08 03:00:00 -7.6 0 Calma 0 Calma 0 -- -- 85
2021-01-08 02:00:00 -7.5 0 Calma 0 Calma 0 -- -- 85
2021-01-08 01:00:00 -6.9 0 Calma 0 Calma 0 -- -- 84
2021-01-08 00:00:00 -7.1 0 Calma 0 Calma 0 -- -- 83
2021-01-07 23:00:00 -7.1 0 Calma -- -- -- -- -- 83
2021-01-07 22:00:00 -10.5 0 Calma 0 Calma 0 -- -- 79
2021-01-07 21:00:00 -10 0 Calma 0 Calma 0 -- -- 78
2021-01-07 20:00:00 -9.7 0 Calma 0 Calma 0 -- -- 77
2021-01-07 19:00:00 -9.5 0 Calma 0 Calma 0 -- -- 78
2021-01-07 18:00:00 -8.9 0 Calma 0 Calma 0 -- -- 76
2021-01-07 17:00:00 -8.1 0 Calma 0 Calma 0 -- -- 74
2021-01-07 16:00:00 -5.1 0 Calma 0 Calma 0 -- -- 71
2021-01-07 15:00:00 -3.4 0 Calma 0 Calma 0 -- -- 71
2021-01-07 14:00:00 -3.1 0 Calma 0 Calma 0 -- -- 71
2021-01-07 13:00:00 -2.5 0 Calma 0 Calma 0 -- -- 72
2021-01-07 12:00:00 -3.9 0 Calma 0 Calma 0 -- -- 74
2021-01-07 11:00:00 -6 0 Calma 0 Calma 0 -- -- 78
2021-01-07 10:00:00 -7.4 0 Calma 0 Calma 0 -- -- 81
2021-01-07 09:00:00 -7.9 0 Calma 0 Calma 0 -- -- 82
2021-01-07 08:00:00 -8.9 0 Calma 0 Calma 0 -- -- 83
2021-01-07 07:00:00 -9 0 Calma 0 Calma 0 -- -- 83
2021-01-07 06:00:00 -9.3 0 Calma 0 Calma 0 -- -- 83
2021-01-07 05:00:00 -10 0 Calma 0 Calma 0 -- -- 83
2021-01-07 04:00:00 -9.6 0 Calma 0 Calma 0 -- -- 83
2021-01-07 03:00:00 -8.7 0 Calma 0 Calma 0 -- -- 83
2021-01-07 02:00:00 -8.8 0 Calma 0 Calma 0 -- -- 83
2021-01-07 01:00:00 -9 0 Calma 0 Calma 0 -- -- 83
2021-01-07 00:00:00 -7.4 0 Calma 0 Calma 0 -- -- 84
2021-01-06 23:00:00 -7.9 0 Calma 0 Calma 0 -- -- 84
2021-01-06 22:00:00 -8.7 0 Calma 0 Calma 0 -- -- 84
2021-01-06 21:00:00 -8.5 0 Calma 0 Calma 0 -- -- 85
2021-01-06 20:00:00 -6.8 0 Calma 0 Calma 0 -- -- 86
2021-01-06 19:00:00 -7.7 0 Calma 0 Calma 0 -- -- 86
2021-01-06 18:00:00 -4.9 0 Calma 0 Calma 0 -- -- 87
2021-01-06 17:00:00 -4.4 0 Calma 0 Calma 0 -- -- 86
2021-01-06 16:00:00 -4.3 0 Calma 0 Calma 0 -- -- 86
2021-01-06 15:00:00 -4.2 0 Calma 0 Calma 0 -- -- 88
2021-01-06 14:00:00 -3.7 0 Calma 0 Calma 0 -- -- 89
2021-01-06 13:00:00 -3 0 Calma 0 Calma 0 -- -- 89
2021-01-06 12:00:00 -4.4 0 Calma 0 Calma 0 -- -- 89
2021-01-06 11:00:00 -4.8 0 Calma 0 Calma 0 -- -- 89
2021-01-06 10:00:00 -4.8 0 Calma -- -- 0 -- -- 89
2021-01-06 09:00:00 -5.1 0 Calma 0 Calma 0 -- -- 89
2021-01-06 08:00:00 -4.9 0 Calma 0 Calma 0 -- -- 89
2021-01-06 07:00:00 -4.6 0 Calma 0 Calma 0 -- -- 89
2021-01-06 06:00:00 -4.7 0 Calma 0 Calma 0 -- -- 89
2021-01-06 05:00:00 -4.6 0 Calma 0 Calma 0 -- -- 89
2021-01-06 04:00:00 -4.8 0 Calma 0 Calma 0 -- -- 89
2021-01-06 03:00:00 -4.4 0 Calma 0 Calma 0 -- -- 90
2021-01-06 02:00:00 -4.2 0 Calma 0 Calma 0 -- -- 90
2021-01-06 01:00:00 -4.1 0 Calma 0 Calma 0 -- -- 90
2021-01-06 00:00:00 -4.1 0 Calma 0 Calma 0 -- -- 90
2021-01-05 23:00:00 -4 0 Calma 0 Calma 0.6 -- -- 90
2021-01-05 22:00:00 -3.9 0 Calma 0 Calma 0 -- -- 90
2021-01-05 21:00:00 -3.9 0 Calma 0 Calma 0.1 -- -- 90
2021-01-05 20:00:00 -4 0 Calma 0 Calma 0 -- -- 90
2021-01-05 19:00:00 -3.8 0 Calma 0 Calma 0 -- -- 90
2021-01-05 18:00:00 -3.5 0 Calma 0 Calma 0 -- -- 90
2021-01-05 17:00:00 -3 0 Calma 0 Calma 0.2 -- -- 90
2021-01-05 16:00:00 -2.3 0 Calma 0 Calma 0 -- -- 90
2021-01-05 15:00:00 -2.1 0 Calma 0 Calma 0 -- -- 90
2021-01-05 14:00:00 -2.4 0 Calma 0 Calma 0 -- -- 90
2021-01-05 13:00:00 -2.5 0 Calma 0 Calma 0 -- -- 89
2021-01-05 12:00:00 -3.2 0 Calma 0 Calma 0.2 -- -- 89
2021-01-05 11:00:00 -4 0 Calma 0 Calma 0.4 -- -- 88
2021-01-05 10:00:00 -4.7 0 Calma 0 Calma 0.1 -- -- 87
2021-01-05 09:00:00 -5.2 0 Calma 0 Calma 0 -- -- 87
2021-01-05 08:00:00 -5.1 0 Calma 0 Calma 0 -- -- 87
2021-01-05 07:00:00 -5 0 Calma 0 Calma 0 -- -- 87
2021-01-05 06:00:00 -5 0 Calma 0 Calma 0 -- -- 87
2021-01-05 05:00:00 -5.4 0 Calma 0 Calma 0 -- -- 87
2021-01-05 04:00:00 -5.5 0 Calma 0 Calma 0 -- -- 87
2021-01-05 03:00:00 -5.8 0 Calma 0 Calma 0 -- -- 87
2021-01-05 02:00:00 -6 0 Calma 0 Calma 0 -- -- 87
2021-01-05 01:00:00 -7.4 0 Calma 0 Calma 0 -- -- 87
2021-01-05 00:00:00 -5.8 0 Calma 0 Calma 0 -- -- 88
2021-01-04 23:00:00 -5.4 0 Calma 2 Oeste 0.1 -- -- 88
2021-01-04 22:00:00 -5.2 0 Calma 0 Calma 0 -- -- 88
2021-01-04 21:00:00 -5.1 0 Calma 2 Oeste 0 -- -- 89
2021-01-04 20:00:00 -5 0 Calma 2 Oeste 0.5 -- -- 89
2021-01-04 19:00:00 -4.8 0 Calma 2 Noroeste 2.6 -- -- 89
2021-01-04 18:00:00 -4.9 0 Calma 0 Calma 1.6 -- -- 89
2021-01-04 17:00:00 -4.9 0 Calma 0 Calma 0.3 -- -- 89
2021-01-04 16:00:00 -5 0 Calma 0 Calma 0 -- -- 89
2021-01-04 15:00:00 -4.6 0 Calma 2 Noroeste 1.6 -- -- 89
2021-01-04 14:00:00 -4.1 0 Calma 0 Calma 0.9 -- -- 89
2021-01-04 13:00:00 -4.1 0 Calma 0 Calma 0.8 -- -- 89
2021-01-04 12:00:00 -4.3 0 Calma 0 Calma 0.4 -- -- 89
2021-01-04 11:00:00 -4.3 0 Calma 0 Calma 0.8 -- -- 89
2021-01-04 10:00:00 -4.7 0 Calma 0 Calma 2.5 -- -- 89
2021-01-04 09:00:00 -4.8 0 Calma 2 Noroeste 0.5 -- -- 89
2021-01-04 08:00:00 -4.8 0 Calma 0 Calma 2.1 -- -- 89
2021-01-04 07:00:00 -5 0 Calma 0 Calma 2.2 -- -- 89
2021-01-04 06:00:00 -4.9 0 Calma 0 Calma 1.1 -- -- 89
2021-01-04 05:00:00 -4.9 0 Calma 0 Calma 2 -- -- 89
2021-01-04 04:00:00 -5 0 Calma 0 Calma 4.3 -- -- 89
2021-01-04 03:00:00 -5 0 Calma 0 Calma 0.2 -- -- 89
2021-01-04 02:00:00 -5.1 0 Calma 0 Calma 0 -- -- 89
2021-01-04 01:00:00 -4.9 0 Calma 2 Noroeste 0 -- -- 89
2021-01-04 00:00:00 -4.8 0 Calma 2 Noroeste 0.8 -- -- 89
2021-01-03 23:00:00 -4.6 0 Calma 0 Calma 2.1 -- -- 89
2021-01-03 22:00:00 -4.7 0 Calma 0 Calma 0 -- -- 89
2021-01-03 21:00:00 -4.6 0 Calma 0 Calma 0.2 -- -- 89
2021-01-03 20:00:00 -4.6 0 Calma 0 Calma 1.1 -- -- 89
2021-01-03 19:00:00 -4.5 0 Calma 2 Noroeste 0.2 -- -- 89
2021-01-03 18:00:00 -4.3 0 Calma 2 Oeste 2 -- -- 90
2021-01-03 17:00:00 -3.7 0 Calma 2 Noroeste 0.7 -- -- 90
2021-01-03 16:00:00 -3.1 0 Calma 2 Oeste 0.5 -- -- 90
2021-01-03 15:00:00 -2.6 0 Calma 0 Calma 0.7 -- -- 90
2021-01-03 14:00:00 -2.1 0 Calma 0 Calma 0.2 -- -- 90
2021-01-03 13:00:00 -2.1 0 Calma 0 Calma 0.4 -- -- 90
2021-01-03 12:00:00 -2.6 0 Calma 0 Calma 0.5 -- -- 89
2021-01-03 11:00:00 -3.1 0 Calma 0 Calma 0.4 -- -- 89
2021-01-03 10:00:00 -3.2 0 Calma 0 Calma 0.5 -- -- 89
2021-01-03 09:00:00 -3.6 0 Calma 2 Noroeste 0.2 -- -- 89
2021-01-03 08:00:00 -3.6 0 Calma 2 Noroeste 1 -- -- 89
2021-01-03 07:00:00 -3.7 0 Calma 0 Calma 0.6 -- -- 89
2021-01-03 06:00:00 -3.8 0 Calma 0 Calma 0 -- -- 89
2021-01-03 05:00:00 -3.7 0 Calma 0 Calma 0 -- -- 89
2021-01-03 04:00:00 -3.7 0 Calma 0 Calma 0 -- -- 89
2021-01-03 03:00:00 -3.7 0 Calma 0 Calma 0 -- -- 89
2021-01-03 02:00:00 -3.6 0 Calma 2 Noroeste 0 -- -- 89
2021-01-03 01:00:00 -3.5 0 Calma 2 Noroeste 0.3 -- -- 89
2021-01-03 00:00:00 -3.7 0 Calma 3 Oeste 0 -- -- 89
2021-01-02 23:00:00 -3.7 0 Calma 3 Oeste 1.1 -- -- 89
2021-01-02 22:00:00 -3.9 0 Calma 2 Noroeste 1.8 -- -- 89
2021-01-02 21:00:00 -4 0 Calma 2 Oeste 0.3 -- -- 89
2021-01-02 20:00:00 -4 0 Calma 3 Noroeste 0.1 -- -- 89
2021-01-02 19:00:00 -4.1 0 Calma 2 Noroeste 0 -- -- 89
2021-01-02 18:00:00 -4 0 Calma 2 Noroeste 0 -- -- 89
2021-01-02 17:00:00 -4 0 Calma 3 Noroeste 0.1 -- -- 89
2021-01-02 16:00:00 -3.8 0 Calma 2 Noroeste 0.3 -- -- 89
2021-01-02 15:00:00 -3.7 0 Calma 2 Noroeste 0.5 -- -- 89
2021-01-02 14:00:00 -3.4 0 Calma 0 Calma 1.1 -- -- 89